Weather reports worldwide

Advertisment
Castlederg, United Kingdom (3904): temperature & dewpoint: 20.09.2018 16:00:00 - 26.09.2018 16:00:00 (BST)Castlederg, United Kingdom (3904): temperature -20cm: 20.09.2018 16:00:00 - 26.09.2018 16:00:00 (BST)Castlederg, United Kingdom (3904): wind speed & gusts: 20.09.2018 16:00:00 - 26.09.2018 16:00:00 (BST)Castlederg, United Kingdom (3904): wind direction: 20.09.2018 16:00:00 - 26.09.2018 16:00:00 (BST)Castlederg, United Kingdom (3904): reduced air pressure: 20.09.2018 16:00:00 - 26.09.2018 16:00:00 (BST)Castlederg, United Kingdom (3904): visibility: 20.09.2018 16:00:00 - 26.09.2018 16:00:00 (BST)Castlederg, United Kingdom (3904): precipitation: 20.09.2018 16:00:00 - 26.09.2018 16:00:00 (BST)
Date & Time tt [°C] td [°C] tt -20cm [°C] ff [km/h] ff [kn] fx [km/h] fx [kn] dd ppp [hPa] vv [km] rr [mm]
26.09.2018 16:00:00 16,5 15,1 - 15 8 - - WSW 1027,4 29 0,0
26.09.2018 15:00:00 16,4 14,9 - 18 10 - - WSW 1027,3 40 0,0
26.09.2018 14:00:00 15,9 14,7 - 26 14 - - SW 1027,4 14 0,0
26.09.2018 13:00:00 15,9 14,7 - 26 14 - - WSW 1027,4 14 0,0
26.09.2018 12:00:00 16,2 14,8 - 28 15 - - WSW 1026,9 30 0,0
26.09.2018 11:00:00 15,9 14,8 - 24 13 54 29 WSW 1026,6 14 0,0
26.09.2018 10:00:00 16,1 14,9 13,0 29 16 46 25 WSW 1026,1 15 0,0
26.09.2018 09:00:00 16,1 15,3 - 18 10 - - WSW 1025,3 10 0,0
26.09.2018 08:00:00 16,2 15,0 - 28 15 52 28 WSW 1024,6 10 0,0
26.09.2018 07:00:00 16,5 15,5 - 29 16 - - WSW 1023,8 11 0,4
26.09.2018 06:00:00 15,6 14,9 - 15 8 - - SW 1023,3 18 0,2
26.09.2018 05:00:00 15,3 14,6 - 18 10 - - SW 1023,3 14 0,0
26.09.2018 04:00:00 15,3 14,4 - 21 11 - - SW 1023,5 25 0,0
26.09.2018 03:00:00 15,2 14,6 - 24 13 - - SW 1023,5 35 0,4
26.09.2018 02:00:00 14,6 14,0 - 22 12 - - SSW 1023,4 4,4 0,4
26.09.2018 01:00:00 14,1 13,6 - 22 12 - - SW 1023,9 7 0,4
26.09.2018 00:00:00 13,6 13,0 - 22 12 - - SSW 1023,9 4,5 0,6
25.09.2018 23:00:00 13,3 12,6 - 21 11 - - SSW 1024,3 24 0,6
25.09.2018 22:00:00 13,6 12,2 - 24 13 50 27 SSW 1024,0 50 0,0
25.09.2018 21:00:00 13,4 12,0 - 28 15 52 28 SW 1024,0 22 0,0
25.09.2018 20:00:00 12,8 11,8 - 26 14 48 26 SW 1024,2 4,8 0,0
25.09.2018 19:00:00 13,5 11,3 - 26 14 55 30 SSW 1024,5 35 0,0
25.09.2018 18:00:00 13,7 11,3 - 29 16 52 28 SSW 1024,7 50 0,0
25.09.2018 17:00:00 13,3 11,3 - 31 17 57 31 SSW 1025,3 50 0,0
25.09.2018 16:00:00 12,8 10,6 - 34 18 52 28 SSW 1025,8 45 0,2
25.09.2018 15:00:00 12,8 10,9 - 18 10 - - SSW 1026,5 13 0,2
25.09.2018 14:00:00 12,6 9,4 - 28 15 46 25 SSW 1027,2 35 0,0
25.09.2018 13:00:00 11,7 8,9 - 22 12 - - SSW 1027,9 45 0,0
25.09.2018 12:00:00 11,1 7,7 - 24 13 - - S 1028,1 15 0,0
25.09.2018 11:00:00 11,0 7,1 - 18 10 - - S 1028,6 50 0,0
25.09.2018 10:00:00 9,8 6,5 12,2 15 8 - - S 1029,3 45 0,0
25.09.2018 09:00:00 9,1 6,0 - 18 10 - - S 1029,8 40 0,0
25.09.2018 08:00:00 8,5 5,8 - 18 10 - - S 1030,2 50 0,0
25.09.2018 07:00:00 8,1 5,7 - 15 8 - - SSE 1031,0 50 0,0
25.09.2018 06:00:00 8,2 5,3 - 5 3 - - SE 1032,0 50 0,0
25.09.2018 05:00:00 8,4 5,6 - 4 2 - - SSW 1032,3 50 0,0
25.09.2018 04:00:00 8,3 5,4 - 15 8 - - SSE 1032,8 50 0,0
25.09.2018 03:00:00 5,9 5,1 - 5 3 - - E 1033,8 50 0,0
25.09.2018 02:00:00 5,4 4,8 - 2 1 - - NNW 1035,1 45 0,0
25.09.2018 01:00:00 5,4 5,0 - 2 1 - - ENE 1035,6 45 0,0
25.09.2018 00:00:00 4,5 3,6 - 2 1 - - ESE 1036,0 16 0,0
24.09.2018 23:00:00 5,3 4,3 - 2 1 - - SSE 1036,3 19 0,0
24.09.2018 22:00:00 6,6 5,1 - 4 2 - - E 1036,5 27 0,0
24.09.2018 21:00:00 7,7 5,5 - 4 2 - - SSE 1036,8 50 0,0
24.09.2018 20:00:00 8,6 5,7 - 2 1 - - E 1036,8 45 0,0
24.09.2018 19:00:00 10,1 5,6 - 8 4 - - SSW 1036,9 50 0,0
24.09.2018 18:00:00 13,2 6,2 - 13 7 - - WSW 1036,6 50 0,0
24.09.2018 17:00:00 13,5 6,3 - 22 12 - - SW 1036,9 50 0,0
24.09.2018 16:00:00 13,6 6,2 - 18 10 - - WSW 1037,4 35 0,0
24.09.2018 15:00:00 13,1 6,1 - 16 9 - - W 1037,8 45 0,0
24.09.2018 14:00:00 12,6 7,0 - 13 7 - - WSW 1038,2 45 0,0
24.09.2018 13:00:00 11,1 6,6 - 16 9 - - WSW 1038,2 50 0,0
24.09.2018 12:00:00 11,3 8,5 - 9 5 - - WSW 1038,3 50 0,0
24.09.2018 11:00:00 10,4 9,0 - 8 4 - - WSW 1038,4 45 0,0
24.09.2018 10:00:00 6,6 6,5 11,7 4 2 - - ENE 1038,3 35 0,0
24.09.2018 09:00:00 3,3 3,1 - 0 0 - - N 1038,1 27 0,0
24.09.2018 08:00:00 1,2 0,9 - 2 1 - - WSW 1037,7 20 0,0
24.09.2018 07:00:00 1,6 1,1 - 5 3 - - NE 1037,2 29 0,0
24.09.2018 06:00:00 2,6 2,0 - 5 3 - - W 1036,9 45 0,0
24.09.2018 05:00:00 2,5 1,8 - 4 2 - - WNW 1036,9 35 0,0
24.09.2018 04:00:00 3,5 3,1 - 5 3 - - WNW 1036,6 45 0,0
24.09.2018 03:00:00 3,4 2,2 - 5 3 - - WNW 1036,7 35 0,0
24.09.2018 02:00:00 4,0 3,2 - 8 4 - - WNW 1036,4 45 0,0
24.09.2018 01:00:00 3,2 2,6 - 5 3 - - W 1036,1 40 0,0
24.09.2018 00:00:00 4,3 3,0 - 8 4 - - W 1035,4 40 0,0
23.09.2018 23:00:00 4,1 3,3 - 8 4 - - W 1034,7 21 0,0
23.09.2018 22:00:00 3,4 2,2 - 5 3 - - W 1033,9 14 0,0
23.09.2018 21:00:00 5,1 2,6 - 2 1 - - W 1033,2 25 0,0
23.09.2018 20:00:00 7,7 4,5 - 5 3 - - WNW 1032,3 13 0,0
23.09.2018 19:00:00 9,4 4,4 - 9 5 - - NW 1031,4 26 0,0
23.09.2018 18:00:00 10,4 4,8 - 11 6 - - WNW 1030,2 45 0,0
23.09.2018 17:00:00 10,9 5,4 - 13 7 - - NW 1029,4 30 0,2
23.09.2018 16:00:00 10,4 6,1 - 11 6 - - WNW 1028,5 35 0,4
23.09.2018 15:00:00 11,6 6,1 - 16 9 - - WNW 1027,7 30 0,2
23.09.2018 14:00:00 11,2 6,0 - 13 7 - - NW 1026,5 35 0,0
23.09.2018 13:00:00 10,1 7,1 - 8 4 - - WNW 1025,6 35 0,0
23.09.2018 12:00:00 9,8 6,3 - 13 7 - - WNW 1024,7 40 0,2
23.09.2018 11:00:00 8,4 6,4 - 8 4 - - WNW 1023,6 50 0,6
23.09.2018 10:00:00 8,4 5,5 12,4 9 5 - - W 1022,6 50 0,0
23.09.2018 09:00:00 7,5 4,7 - 11 6 - - W 1021,8 14 0,2
23.09.2018 08:00:00 4,6 4,1 - 9 5 - - W 1021,2 50 0,0
23.09.2018 07:00:00 2,5 2,0 - 8 4 - - WNW 1020,5 50 0,0
23.09.2018 06:00:00 2,1 1,4 - 4 2 - - W 1019,8 40 0,0
23.09.2018 05:00:00 3,0 2,4 - 8 4 - - WNW 1019,6 50 0,0
23.09.2018 04:00:00 3,5 2,9 - 5 3 - - WNW 1019,4 50 0,0
23.09.2018 03:00:00 3,4 2,8 - 4 2 - - WNW 1019,4 45 0,0
23.09.2018 02:00:00 2,8 2,1 - 2 1 - - NNW 1019,0 45 0,0
23.09.2018 01:00:00 3,2 2,7 - 4 2 - - WNW 1018,7 35 0,0
23.09.2018 00:00:00 2,5 1,9 - 4 2 - - W 1018,7 22 0,0
22.09.2018 23:00:00 2,9 2,2 - 4 2 - - W 1018,6 17 0,0
22.09.2018 22:00:00 3,5 2,4 - 5 3 - - W 1018,4 10 0,0
22.09.2018 21:00:00 5,5 3,8 - 2 1 - - W 1017,8 16 0,0
22.09.2018 20:00:00 7,6 4,0 - 2 1 - - S 1017,0 30 0,0
22.09.2018 19:00:00 10,5 4,8 - 5 3 - - NNW 1016,3 40 0,0
22.09.2018 18:00:00 11,6 5,2 - 8 4 - - N 1015,6 50 0,0
22.09.2018 17:00:00 12,4 5,1 - 4 2 - - NNE 1015,7 40 0,0
22.09.2018 16:00:00 13,0 5,8 - 8 4 - - NNE 1015,6 29 0,0
22.09.2018 15:00:00 12,2 4,7 - 5 3 - - NW 1015,7 30 0,0
22.09.2018 14:00:00 14,3 5,4 - 15 8 - - WSW 1015,4 45 0,0
22.09.2018 13:00:00 12,9 7,6 - 5 3 - - SW 1015,6 40 0,0
22.09.2018 12:00:00 12,0 7,9 - 4 2 - - WSW 1015,9 30 0,0
22.09.2018 11:00:00 9,3 7,2 - 2 1 - - SSE 1015,9 26 0,0
22.09.2018 10:00:00 7,9 6,5 12,7 2 1 - - WSW 1015,7 27 0,0
22.09.2018 09:00:00 6,7 5,3 - 4 2 - - WNW 1015,9 35 0,0
22.09.2018 08:00:00 6,4 5,2 - 5 3 - - WNW 1015,7 35 0,0
22.09.2018 07:00:00 5,7 4,9 - 4 2 - - WNW 1015,4 30 0,0
22.09.2018 06:00:00 6,3 5,1 - 4 2 - - WNW 1015,3 30 0,0
22.09.2018 05:00:00 5,6 4,9 - 4 2 - - W 1015,1 23 0,0
22.09.2018 04:00:00 6,1 5,3 - 9 5 - - W 1015,5 14 0,0
22.09.2018 03:00:00 5,9 4,9 - 5 3 - - W 1015,4 26 0,0
22.09.2018 02:00:00 7,0 5,4 - 9 5 - - WSW 1015,1 29 0,2
22.09.2018 01:00:00 7,5 4,7 - 11 6 - - WSW 1014,5 40 0,0
22.09.2018 00:00:00 7,4 4,4 - 11 6 - - W 1014,5 30 0,0
21.09.2018 23:00:00 7,5 4,3 - 9 5 - - W 1014,2 27 0,0
21.09.2018 22:00:00 7,4 4,0 - 13 7 - - WSW 1013,8 23 0,0
21.09.2018 21:00:00 7,5 5,4 - 11 6 - - WSW 1013,3 23 0,2
21.09.2018 20:00:00 7,5 5,3 - 11 6 - - SW 1012,4 25 0,0
21.09.2018 19:00:00 10,0 6,1 - 18 10 - - W 1011,4 19 0,0
21.09.2018 18:00:00 9,9 8,4 - 18 10 - - WSW 1010,7 35 0,6
21.09.2018 17:00:00 11,1 6,5 - 16 9 - - W 1009,7 35 0,0
21.09.2018 16:00:00 10,1 7,2 - 22 12 46 25 W 1009,0 23 0,4
21.09.2018 15:00:00 12,7 8,0 - 21 11 48 26 W 1008,1 35 0,0
21.09.2018 14:00:00 11,8 7,1 - 26 14 - - W 1006,9 30 0,0
21.09.2018 13:00:00 10,9 7,8 - 18 10 - - WNW 1005,3 35 0,8
21.09.2018 12:00:00 12,2 9,0 - 21 11 - - WNW 1003,5 35 0,2
21.09.2018 11:00:00 10,3 7,9 - 26 14 52 28 W 1001,8 11 0,2
21.09.2018 10:00:00 10,0 8,1 13,0 24 13 52 28 W 999,9 22 0,2
21.09.2018 09:00:00 9,4 8,5 - 21 11 46 25 W 998,0 30 0,6
21.09.2018 08:00:00 7,5 6,6 - 22 12 - - WSW 997,2 40 0,6
21.09.2018 07:00:00 7,1 6,2 - 28 15 52 28 SW 997,5 16 0,6
21.09.2018 06:00:00 6,0 5,1 - 11 6 - - WSW 997,8 45 0,2
21.09.2018 05:00:00 5,4 4,7 - 9 5 - - WSW 998,0 40 0,0
21.09.2018 04:00:00 4,7 4,2 - 4 2 - - W 998,3 40 0,0
21.09.2018 03:00:00 5,0 4,4 - 5 3 - - WSW 998,5 35 0,0
21.09.2018 02:00:00 5,3 4,4 - 0 0 - - N 998,1 50 0,0
21.09.2018 01:00:00 5,3 4,4 - 9 5 - - WSW 998,0 50 0,0
21.09.2018 00:00:00 6,6 5,8 - 5 3 - - W 997,9 45 0,2
20.09.2018 23:00:00 6,6 5,9 - 5 3 - - WSW 998,1 23 0,0
20.09.2018 22:00:00 6,6 5,6 - 2 1 - - NNW 998,0 40 0,0
20.09.2018 21:00:00 7,2 6,2 - 2 1 - - SE 998,8 25 0,0
20.09.2018 20:00:00 7,5 6,3 - 4 2 - - NE 999,2 22 0,8
20.09.2018 19:00:00 8,6 5,5 - 9 5 - - W 999,4 21 0,6
20.09.2018 18:00:00 10,7 7,5 - 2 1 - - SSW 999,8 28 0,0
20.09.2018 17:00:00 11,6 6,5 - 2 1 - - W 999,9 45 0,0
20.09.2018 16:00:00 12,1 6,3 - 5 3 - - S 1001,0 22 0,0

tt = temperature
td = dewpoint
tt -20cm = temperature -20cm
ff = wind speed
fx = gusts
dd = wind direction
ppp = reduced air pressure
vv = visibility
rr = precipitation

Next stations